North Windham, CT

2:54 AM EST on February 10, 2016 (GMT -0500)
Windham

Weather History for KIJD - December, 2012

Change the Weather History Date:

Sunday, December 23, 2012

  Actual Average Record
Temperature  
Mean Temperature 34 °F -  
Max Temperature 39 °F 37 °F 58 °F (1990)
Min Temperature 28 °F 18 °F -13 °F (1955)
Degree Days  
Heating Degree Days 32    
Moisture  
Dew Point 20 °F    
Average Humidity 54    
Maximum Humidity 72    
Minimum Humidity 45    
Precipitation  
Precipitation 0.00 in - - ()
Sea Level Pressure  
Sea Level Pressure 29.85 in    
Wind  
Wind Speed 8 mph (WSW)    
Max Wind Speed 15 mph    
Max Gust Speed 23 mph    
Visibility 10 miles    
Events      
Averages and records for this station are not official NWS values.
T = Trace of Precipitation, MM = Missing Value Source: NWS Daily Summary

Daily Weather History Graph

Daily Weather History Graph

Search for Another Location

Airport or City:

Trip Planner

Search our weather history database for the weather conditions in past years. The results will help you decide how hot, cold, wet, or windy it might be!

Date:

Astronomy

Dec. 23, 2012 Rise Set
Actual Time 7:13 AM EST 4:22 PM EST
Civil Twilight 6:42 AM EST 4:54 PM EST
Nautical Twilight 6:07 AM EST 5:29 PM EST
Astronomical Twilight 5:33 AM EST 6:03 PM EST
Moon 1:13 PM EST (12/23) 2:51 AM EST (12/23)
Length of Visible Light 10h 12m
Length of Day
9h 08m
Waxing Gibbous, 81% of the Moon is Illuminated
Dec 23
Waxing Gibbous
Dec 28
Full
Jan 4
Last Quarter
Jan 11
New
Jan 18
First Quarter

Hourly Weather History & Observations

Time (EST) Temp. Windchill Dew Point Humidity Pressure Visibility Wind Dir Wind Speed Gust Speed Precip Events Conditions
12:52 AM 34.0 °F 25.5 °F 19.9 °F 56% 29.73 in 10.0 mi WNW 11.5 mph 18.4 mph N/A   Overcast
1:52 AM 35.1 °F 30.1 °F 19.0 °F 52% 29.75 in 10.0 mi Variable 5.8 mph - N/A   Overcast
2:52 AM 35.1 °F 28.6 °F 19.0 °F 52% 29.78 in 10.0 mi WNW 8.1 mph 18.4 mph N/A   Overcast
3:52 AM 36.0 °F 26.7 °F 19.9 °F 52% 29.79 in 10.0 mi West 15.0 mph 23.0 mph N/A   Mostly Cloudy
4:52 AM 35.1 °F 27.4 °F 19.9 °F 54% 29.81 in 10.0 mi West 10.4 mph - N/A   Mostly Cloudy
5:52 AM 34.0 °F 26.6 °F 21.0 °F 59% 29.84 in 10.0 mi West 9.2 mph 16.1 mph N/A   Partly Cloudy
6:52 AM 35.1 °F 27.9 °F 19.9 °F 54% 29.86 in 10.0 mi West 9.2 mph 18.4 mph N/A   Partly Cloudy
7:52 AM 34.0 °F 25.0 °F 19.9 °F 56% 29.88 in 10.0 mi West 12.7 mph 19.6 mph N/A   Clear
8:52 AM 35.1 °F 32.2 °F 21.0 °F 57% 29.89 in 10.0 mi Variable 3.5 mph - N/A   Overcast
9:52 AM 36.0 °F 31.1 °F 21.0 °F 55% 29.90 in 10.0 mi WSW 5.8 mph - N/A   Overcast
10:52 AM 37.0 °F 31.6 °F 19.9 °F 50% 29.89 in 10.0 mi WSW 6.9 mph - N/A   Overcast
11:52 AM 39.0 °F 34.8 °F 21.0 °F 49% 29.86 in 10.0 mi West 5.8 mph - N/A   Overcast
12:52 PM 39.9 °F 35.1 °F 19.9 °F 45% 29.84 in 10.0 mi SW 6.9 mph - N/A   Mostly Cloudy
1:52 PM 39.9 °F 35.1 °F 19.9 °F 45% 29.82 in 10.0 mi WSW 6.9 mph - N/A   Overcast
2:52 PM 39.9 °F 35.1 °F 19.9 °F 45% 29.82 in 10.0 mi WSW 6.9 mph - N/A   Overcast
3:52 PM 39.0 °F 34.0 °F 19.0 °F 45% 29.83 in 10.0 mi SW 6.9 mph - N/A   Scattered Clouds
4:52 PM 37.0 °F 34.5 °F 19.9 °F 50% 29.84 in 10.0 mi SW 3.5 mph - N/A   Clear
5:52 PM 34.0 °F 31.0 °F 19.9 °F 56% 29.85 in 10.0 mi SW 3.5 mph - N/A   Clear
6:52 PM 28.9 °F 25.2 °F 21.0 °F 72% 29.86 in 10.0 mi WSW 3.5 mph - N/A   Clear
7:52 PM 28.9 °F - 21.0 °F 72% 29.88 in 10.0 mi Calm Calm - N/A   Clear
8:52 PM 34.0 °F 31.0 °F 19.9 °F 56% 29.89 in 10.0 mi WSW 3.5 mph - N/A   Clear
9:52 PM 33.1 °F 28.7 °F 18.0 °F 54% 29.90 in 10.0 mi WSW 4.6 mph - N/A   Clear
10:52 PM 32.0 °F 27.5 °F 18.0 °F 56% 29.91 in 10.0 mi WSW 4.6 mph - N/A   Clear
11:52 PM 32.0 °F 27.5 °F 17.1 °F 54% 29.91 in 10.0 mi WSW 4.6 mph - N/A   Clear